timestamp,surface_pressure_avg,surface_temp_avg,battery_voltage,lat,long
2022-03-24 00:09:00+00:00,257.8781,1.4,11.53,47.84626,-54.09684
2022-03-24 00:19:00+00:00,264.9597,1.4,11.53,47.84626,-54.09684
2022-03-24 00:29:00+00:00,270.3547,1.4,11.53,47.84626,-54.09684
2022-03-24 00:39:00+00:00,274.9831,1.39,11.53,47.84626,-54.09684
2022-03-24 00:49:00+00:00,283.0847,1.4,11.53,47.84626,-54.09684
2022-03-24 00:59:00+00:00,290.2213,1.39,11.53,47.84626,-54.09684
2022-03-24 01:09:00+00:00,295.2131,1.39,11.53,47.84626,-54.09684
2022-03-24 01:19:00+00:00,303.3281,1.4,11.53,47.84626,-54.09684
2022-03-24 01:29:00+00:00,314.6514,1.47,11.53,47.84626,-54.09684
2022-03-24 01:39:00+00:00,324.238,1.48,11.53,47.84626,-54.09684
2022-03-24 01:49:00+00:00,326.7947,1.47,11.53,47.84626,-54.09684
2022-03-24 01:59:00+00:00,332.2996,1.42,11.53,47.84626,-54.09684
2022-03-24 02:09:00+00:00,346.7897,1.42,11.53,47.84626,-54.09684
2022-03-24 02:19:00+00:00,356.7429,1.43,11.46,47.84626,-54.09684
2022-03-24 02:29:00+00:00,356.3645,1.4,11.46,47.84626,-54.09684
2022-03-24 02:39:00+00:00,357.6613,1.4,11.46,47.84626,-54.09684
2022-03-24 02:49:00+00:00,365.523,1.4,11.46,47.84626,-54.09684
2022-03-24 02:59:00+00:00,367.403,1.4,11.46,47.84626,-54.09684
2022-03-24 03:09:00+00:00,360.5062,1.4,11.46,47.84626,-54.09684
2022-03-24 03:19:00+00:00,363.4996,1.4,11.46,47.84626,-54.09684
2022-03-24 03:29:00+00:00,367.163,1.4,11.46,47.84626,-54.09684
2022-03-24 03:39:00+00:00,364.8229,1.4,11.46,47.84626,-54.09684
2022-03-24 03:49:00+00:00,364.353,1.4,11.46,47.84626,-54.09684
2022-03-24 03:59:00+00:00,368.5496,1.4,11.46,47.84626,-54.09684
2022-03-24 04:09:00+00:00,368.8713,1.42,11.46,47.84626,-54.09684
2022-03-24 04:19:00+00:00,362.0063,1.4,11.46,47.84626,-54.09684
2022-03-24 04:29:00+00:00,359.4913,1.4,11.46,47.84626,-54.09684
2022-03-24 04:39:00+00:00,360.9163,1.4,11.46,47.84626,-54.09684
2022-03-24 04:49:00+00:00,358.1996,1.4,11.46,47.84626,-54.09684
2022-03-24 04:59:00+00:00,352.6363,1.4,11.46,47.84626,-54.09684
2022-03-24 05:09:00+00:00,349.6346,1.4,11.46,47.84626,-54.09684
2022-03-24 05:19:00+00:00,351.1462,1.4,11.46,47.84626,-54.09684
2022-03-24 05:29:00+00:00,345.5046,1.4,11.46,47.84626,-54.09684
2022-03-24 05:39:00+00:00,337.5513,1.41,11.46,47.84626,-54.09684
2022-03-24 05:49:00+00:00,338.2996,1.43,11.46,47.84626,-54.09684
2022-03-24 05:59:00+00:00,333.2363,1.5,11.46,47.84626,-54.09684
2022-03-24 06:09:00+00:00,321.4263,1.49,11.46,47.84626,-54.09684
2022-03-24 06:19:00+00:00,318.1647,1.42,11.46,47.84626,-54.09684
2022-03-24 06:29:00+00:00,318.5563,1.45,11.46,47.84626,-54.09684
2022-03-24 06:39:00+00:00,308.3713,1.5,11.46,47.84626,-54.09684
2022-03-24 06:49:00+00:00,297.443,1.5,11.46,47.84626,-54.09684
2022-03-24 06:59:00+00:00,294.918,1.5,11.46,47.84626,-54.09684
2022-03-24 07:09:00+00:00,286.7014,1.49,11.46,47.84626,-54.09684
2022-03-24 07:19:00+00:00,273.3098,1.4,11.46,47.84626,-54.09684
2022-03-24 07:29:00+00:00,265.1681,1.4,11.46,47.84626,-54.09684
2022-03-24 07:39:00+00:00,261.4431,1.4,11.46,47.84626,-54.09684
2022-03-24 07:49:00+00:00,251.0697,1.4,11.46,47.84626,-54.09684
2022-03-24 07:59:00+00:00,240.5497,1.4,11.46,47.84626,-54.09684
2022-03-24 08:09:00+00:00,236.0148,1.38,11.46,47.84626,-54.09684
2022-03-24 08:19:00+00:00,230.6998,1.35,11.46,47.84626,-54.09684
2022-03-24 08:29:00+00:00,223.2564,1.31,11.46,47.84626,-54.09684
2022-03-24 08:39:00+00:00,219.6164,1.3,11.46,47.84626,-54.09684
2022-03-24 08:49:00+00:00,215.8597,1.3,11.46,47.84626,-54.09684
2022-03-24 08:59:00+00:00,210.7348,1.3,11.46,47.84626,-54.09684
2022-03-24 09:09:00+00:00,207.7431,1.3,11.46,47.84626,-54.09684
2022-03-24 09:19:00+00:00,207.8565,1.3,11.46,47.84626,-54.09684
2022-03-24 09:29:00+00:00,206.3598,1.3,11.46,47.84626,-54.09684
2022-03-24 09:39:00+00:00,204.5281,1.3,11.46,47.84626,-54.09684
2022-03-24 09:49:00+00:00,206.5198,1.3,11.46,47.84626,-54.09684
2022-03-24 09:59:00+00:00,206.8431,1.3,11.46,47.84626,-54.09684
2022-03-24 10:09:00+00:00,206.3431,1.3,11.46,47.84626,-54.09684
2022-03-24 10:19:00+00:00,208.4214,1.3,11.46,47.84626,-54.09684
2022-03-24 10:29:00+00:00,211.3998,1.3,11.46,47.84626,-54.09684
2022-03-24 10:39:00+00:00,210.4848,1.3,11.46,47.84626,-54.09684
2022-03-24 10:49:00+00:00,211.3564,1.3,11.46,47.84626,-54.09684
2022-03-24 10:59:00+00:00,216.303,1.3,11.46,47.84626,-54.09684
2022-03-24 11:09:00+00:00,220.0964,1.3,11.46,47.84626,-54.09684
2022-03-24 11:19:00+00:00,221.4431,1.3,11.46,47.84626,-54.09684
2022-03-24 11:29:00+00:00,223.7281,1.3,11.46,47.84626,-54.09684
2022-03-24 11:39:00+00:00,227.5847,1.3,11.46,47.84626,-54.09684
2022-03-24 11:49:00+00:00,228.6198,1.3,11.46,47.84626,-54.09684
2022-03-24 11:59:00+00:00,228.8031,1.3,11.46,47.84626,-54.09684
2022-03-24 12:09:00+00:00,230.7898,1.3,11.46,47.84626,-54.09684
2022-03-24 12:19:00+00:00,234.2831,1.3,11.46,47.84626,-54.09684
2022-03-24 12:29:00+00:00,239.2581,1.3,11.46,47.84626,-54.09684
2022-03-24 12:39:00+00:00,243.0564,1.3,11.46,47.84626,-54.09684
2022-03-24 12:49:00+00:00,245.9248,1.3,11.46,47.84626,-54.09684
2022-03-24 12:59:00+00:00,248.7714,1.3,11.46,47.84626,-54.09684
2022-03-24 13:09:00+00:00,252.3514,1.3,11.46,47.84626,-54.09684
2022-03-24 13:19:01+00:00,256.9014,1.31,11.46,47.84626,-54.09684
2022-03-24 13:29:01+00:00,263.5397,1.37,11.46,47.84626,-54.09684
2022-03-24 13:39:01+00:00,270.6931,1.4,11.46,47.84626,-54.09684
2022-03-24 13:49:01+00:00,276.1231,1.4,11.46,47.84626,-54.09684
2022-03-24 13:59:01+00:00,282.6747,1.4,11.46,47.84626,-54.09684
2022-03-24 14:09:01+00:00,288.1514,1.37,11.46,47.84626,-54.09684
2022-03-24 14:19:00+00:00,293.778,1.4,11.46,47.84626,-54.09684
2022-03-24 14:29:00+00:00,297.1913,1.43,11.46,47.84626,-54.09684
2022-03-24 14:39:00+00:00,301.4647,1.49,11.46,47.84626,-54.09684
2022-03-24 14:49:00+00:00,304.9364,1.5,11.46,47.84626,-54.09684
2022-03-24 14:59:00+00:00,310.498,1.47,11.46,47.84626,-54.09684
2022-03-24 15:09:00+00:00,313.1146,1.4,11.46,47.84626,-54.09684
2022-03-24 15:19:01+00:00,315.3097,1.4,11.46,47.84626,-54.09684
2022-03-24 15:29:01+00:00,316.688,1.44,11.46,47.84626,-54.09684
2022-03-24 15:39:01+00:00,317.3147,1.42,11.46,47.84626,-54.09684
2022-03-24 15:49:01+00:00,319.7363,1.41,11.46,47.84626,-54.09684
2022-03-24 15:59:01+00:00,322.0914,1.46,11.46,47.84626,-54.09684
2022-03-24 16:09:01+00:00,324.2346,1.49,11.46,47.84626,-54.09684
2022-03-24 16:19:00+00:00,325.053,1.5,11.46,47.84626,-54.09684
2022-03-24 16:29:00+00:00,323.7596,1.5,11.46,47.84626,-54.09684
2022-03-24 16:39:00+00:00,325.7847,1.5,11.46,47.84626,-54.09684
2022-03-24 16:49:00+00:00,327.7196,1.52,11.46,47.84626,-54.09684
2022-03-24 16:59:00+00:00,328.7863,1.54,11.46,47.84626,-54.09684
2022-03-24 17:09:00+00:00,326.1431,1.56,11.46,47.84626,-54.09684
2022-03-24 17:19:00+00:00,322.928,1.58,11.46,47.84626,-54.09684
2022-03-24 17:29:00+00:00,321.428,1.5,11.46,47.84626,-54.09684
2022-03-24 17:39:00+00:00,318.4431,1.51,11.46,47.84626,-54.09684
2022-03-24 17:49:00+00:00,313.908,1.57,11.46,47.84626,-54.09684
2022-03-24 17:59:00+00:00,308.8931,1.56,11.46,47.84626,-54.09684
2022-03-24 18:09:00+00:00,309.3447,1.55,11.46,47.84626,-54.09684
2022-03-24 18:19:01+00:00,305.0347,1.56,11.46,47.84626,-54.09684
2022-03-24 18:29:01+00:00,295.5731,1.58,11.46,47.84626,-54.09684
2022-03-24 18:39:01+00:00,289.0547,1.5,11.46,47.84626,-54.09684
2022-03-24 18:49:01+00:00,287.8163,1.5,11.46,47.84626,-54.09684
2022-03-24 18:59:01+00:00,283.0348,1.5,11.46,47.84626,-54.09684
2022-03-24 19:09:01+00:00,275.3464,1.56,11.46,47.84626,-54.09684
2022-03-24 19:19:01+00:00,267.9597,1.57,11.46,47.84626,-54.09684
2022-03-24 19:29:01+00:00,265.6781,1.56,11.46,47.84626,-54.09684
2022-03-24 19:39:01+00:00,259.8814,1.57,11.46,47.84626,-54.09684
2022-03-24 19:49:01+00:00,249.3697,1.59,11.46,47.84626,-54.09684
2022-03-24 19:59:01+00:00,241.4614,1.59,11.46,47.84626,-54.09684
2022-03-24 20:09:01+00:00,236.5514,1.57,11.46,47.84626,-54.09684
2022-03-24 20:19:01+00:00,229.1265,1.55,11.46,47.84626,-54.09684
2022-03-24 20:29:01+00:00,220.7614,1.5,11.46,47.84626,-54.09684
2022-03-24 20:39:01+00:00,221.1414,1.5,11.46,47.84626,-54.09684
2022-03-24 20:49:01+00:00,221.9781,1.5,11.46,47.84626,-54.09684
2022-03-24 20:59:01+00:00,218.1497,1.5,11.46,47.84626,-54.09684
2022-03-24 21:09:01+00:00,216.3231,1.54,11.46,47.84626,-54.09684
2022-03-24 21:19:01+00:00,217.8415,1.56,11.46,47.84626,-54.09684
2022-03-24 21:29:01+00:00,214.9798,1.54,11.46,47.84626,-54.09684
2022-03-24 21:39:01+00:00,213.8282,1.5,11.46,47.84626,-54.09684
2022-03-24 21:49:01+00:00,213.4665,1.5,11.46,47.84626,-54.09684
2022-03-24 21:59:01+00:00,213.5014,1.5,11.46,47.84626,-54.09684
2022-03-24 22:09:01+00:00,217.1281,1.5,11.46,47.84626,-54.09684
2022-03-24 22:19:00+00:00,220.5431,1.5,11.46,47.84626,-54.09684
2022-03-24 22:29:00+00:00,222.8881,1.5,11.46,47.84626,-54.09684
2022-03-24 22:39:00+00:00,227.2731,1.5,11.46,47.84626,-54.09684
2022-03-24 22:49:00+00:00,234.3597,1.5,11.46,47.84626,-54.09684
2022-03-24 22:59:00+00:00,241.0531,1.5,11.46,47.84626,-54.09684
2022-03-24 23:09:00+00:00,242.5347,1.42,11.46,47.84626,-54.09684
2022-03-24 23:19:00+00:00,240.4148,1.4,11.46,47.84626,-54.09684
2022-03-24 23:29:00+00:00,241.6631,1.46,11.46,47.84626,-54.09684
2022-03-24 23:39:00+00:00,243.8247,1.44,11.46,47.84626,-54.09684
2022-03-24 23:49:00+00:00,239.5581,1.41,11.46,47.84626,-54.09684
2022-03-24 23:59:00+00:00,236.5014,1.4,11.46,47.84626,-54.09684
